Regional Weather Roundup
Issued by NWS State College, PA

Home | Current Version | Previous Version | Text Only | Print | Product List | Glossary On
Versions: 1 2 3 4 5 6 7 8 9 10 11 12 13 14 15 16 17 18 19 20 21 22 23 24 25 26 27 28 29 30 31 32 33 34 35 36 37 38 39 40 41 42 43 44 45 46 47 48 49 50
000
ASUS41 KCTP 240710
RWRCTP

REGIONAL WEATHER ROUNDUP
NATIONAL WEATHER SERVICE STATE COLLEGE PA
300 AM EDT MON JUL 24 2017

Note: "fair" indicates few or no clouds below 12,000 feet with no
significant weather and/or obstructions to visibility.

* = STATION THAT DOES NOT REPORT PRECIPITATION /E.G. RAIN...SNOW...ETC/
    THUNDER OR FOG.

PAZ002>004-007>009-013>016-020>023-029>032-240800-
WESTERN PENNSYLVANIA

CITY           SKY/WX    TMP DP  RH WIND       PRES   REMARKS
ERIE           MOCLDY    72  68  87 SW6       29.74S
MEADVILLE      NOT AVBL
FRANKLIN*      MOCLDY    64  63  94 SW6       29.79F
NEW CASTLE     CLOUDY    69  69 100 S5        29.79F
BEAVER COUNTY  NOT AVBL
BUTLER*        MOCLDY    66  64  94 W7        29.79F
PITTSBURGH INT CLOUDY    68  68 100 W5        29.80F
PITTSBURGH     MOCLDY    68  65  90 W8        29.79F
INDIANA*       CLOUDY    68  68 100 W8        29.82F
LATROBE        CLOUDY    68  68 100 SW6       29.81S
WASHINGTON CO* CLEAR     64  63  94 CALM      29.82S
$$

PAZ004>006-010>012-017>019-024>028-033>037-041-042-045-046-049>053-240800-
CENTRAL PENNSYLVANIA

CITY           SKY/WX    TMP DP  RH WIND       PRES   REMARKS
BRADFORD       CLOUDY    67  66  97 VRB3      29.79F
DUBOIS         CLOUDY    65  63  93 SW6       29.79S
CLEARFIELD     CLOUDY    66  66 100 N3        29.80S
JOHNSTOWN      CLOUDY    66  66 100 W8        29.82F FOG
ALTOONA        CLOUDY    69  68  96 SW3       29.79F
STATE COLLEGE  RAIN      67  66  97 N7        29.78S
WILLIAMSPORT   HVY RAIN  67  66  97 W5        29.77S FOG
SELINSGROVE    LGT RAIN  68  67  96 NE5       29.76F
FT INDIANTOWN  DRIZZLE   70  70 100 NE3       29.75F
CAPITAL CITY   LGT RAIN  73  69  87 SE3       29.74F
HARRISBURG     CLOUDY    73  71  93 E6        29.73F
YORK           PTCLDY    70  69  97 CALM      29.75F
$$

PAZ038>040-043-044-047-048-054-055-060>062-067>071-240800-
EASTERN PENNSYLVANIA

CITY           SKY/WX    TMP DP  RH WIND       PRES   REMARKS
SCRANTON       RAIN      69  67  93 NE9       29.79F FOG
MOUNT POCONO   LGT RAIN  64  64 100 E10       29.84F
ALLENTOWN      CLOUDY    71  66  84 E8        29.77F
QUAKERTOWN*    CLOUDY    68  68 100 E6        29.79F
READING        RAIN      69  69 100 SE8       29.75F
LANCASTER      RAIN      72  72 100 CALM      29.76R
COATESVILLE    CLOUDY    70  70 100 E5        29.78F
POTTSTOWN      HVY RAIN  68  68 100 VRB3      29.80S FOG
BLUE BELL      CLOUDY    68  68 100 CALM      29.79S
DOYLESTOWN     LGT RAIN  69  68  96 CALM      29.77F
WILLOW GROVE   NOT AVBL
NORTH PHILA    HVY RAIN  73  70  90 E7        29.78F FOG
PHILADELPHIA   TSTM      72  70  93 N9        29.76S FOG
$$



USA.gov is the U.S. government's official web portal to all federal, state and local government web resources and services.